TimeMDT,TemperatureF,Dew PointF,Humidity,Sea Level PressureIn,VisibilityMPH,Wind Direction,Wind SpeedMPH,Gust SpeedMPH,PrecipitationIn,Events,Conditions,WindDirDegrees,DateUTC
12:53 AM,62.1,37.0,39,29.98,10.0,SW,5.8,-,N/A,,Partly Cloudy,230,2013-06-17 06:53:00
1:53 AM,60.1,39.0,46,29.98,10.0,West,3.5,-,N/A,,Clear,260,2013-06-17 07:53:00
2:53 AM,57.9,39.9,51,29.98,10.0,WSW,3.5,-,N/A,,Clear,240,2013-06-17 08:53:00
3:53 AM,55.9,39.0,53,29.98,10.0,SW,5.8,-,N/A,,Clear,220,2013-06-17 09:53:00
4:53 AM,55.0,37.9,53,29.99,10.0,SW,5.8,-,N/A,,Clear,230,2013-06-17 10:53:00
5:53 AM,51.1,39.0,63,30.01,10.0,SE,3.5,-,N/A,,Clear,140,2013-06-17 11:53:00
6:53 AM,55.9,42.1,60,30.01,10.0,Calm,Calm,-,N/A,,Clear,0,2013-06-17 12:53:00
7:53 AM,57.9,42.1,56,30.02,10.0,NNW,4.6,-,N/A,,Clear,340,2013-06-17 13:53:00
8:53 AM,63.0,42.1,46,30.01,10.0,NNW,3.5,-,N/A,,Clear,330,2013-06-17 14:53:00
9:53 AM,66.9,43.0,42,30.00,10.0,North,3.5,-,N/A,,Clear,10,2013-06-17 15:53:00
10:53 AM,70.0,42.1,36,29.99,10.0,Variable,3.5,-,N/A,,Clear,0,2013-06-17 16:53:00
11:53 AM,73.0,43.0,34,29.96,10.0,NNW,3.5,-,N/A,,Clear,330,2013-06-17 17:53:00
12:53 PM,75.9,43.0,31,29.94,10.0,SSE,5.8,-,N/A,,Clear,150,2013-06-17 18:53:00
1:53 PM,79.0,41.0,26,29.91,10.0,Variable,3.5,-,N/A,,Clear,0,2013-06-17 19:53:00
2:53 PM,82.9,41.0,23,29.87,10.0,NE,6.9,-,N/A,,Clear,40,2013-06-17 20:53:00
3:53 PM,84.0,37.0,19,29.85,10.0,Variable,6.9,-,N/A,,Clear,0,2013-06-17 21:53:00
4:53 PM,84.0,32.0,15,29.84,10.0,NNW,5.8,-,N/A,,Clear,340,2013-06-17 22:53:00
5:53 PM,80.1,33.1,18,29.86,10.0,North,4.6,-,N/A,,Clear,10,2013-06-17 23:53:00
6:53 PM,77.0,33.1,20,29.86,10.0,North,13.8,18.4,N/A,,Clear,350,2013-06-18 00:53:00
7:53 PM,75.0,37.0,25,29.87,10.0,ENE,5.8,-,N/A,,Partly Cloudy,60,2013-06-18 01:53:00
8:53 PM,73.9,30.9,21,29.86,10.0,Calm,Calm,-,N/A,,Clear,0,2013-06-18 02:53:00
9:53 PM,68.0,33.1,27,29.88,10.0,WSW,10.4,-,N/A,,Clear,240,2013-06-18 03:53:00
10:53 PM,68.0,39.0,35,29.91,10.0,Calm,Calm,-,N/A,,Clear,0,2013-06-18 04:53:00
11:53 PM,63.0,37.9,40,29.91,10.0,WSW,11.5,-,N/A,,Clear,250,2013-06-18 05:53:00